Agadir Al Massira, Morocco

12:17 PM WEST on April 26, 2018 (GMT +0100)
Agadir Al Massira

Weather History for GMAD - February, 2014

Change the Weather History Date:

Friday, February 7, 2014

  Actual Average Record
Temperature  
Mean Temperature 55 °F -  
Max Temperature 69 °F - - ()
Min Temperature 41 °F - - ()
Degree Days  
Heating Degree Days 10    
Growing Degree Days 5 (Base 50)    
Moisture  
Dew Point 49 °F    
Average Humidity 71    
Maximum Humidity 94    
Minimum Humidity 38    
Precipitation  
Precipitation 0.00 in - - ()
Sea Level Pressure  
Sea Level Pressure 30.18 in    
Wind  
Wind Speed 2 mph ()    
Max Wind Speed 14 mph    
Max Gust Speed -    
Visibility 6.1 miles    
Events      
T = Trace of Precipitation, MM = Missing Value Source: Averaged Metar Reports

Daily Weather History Graph

Daily Weather History Graph

Search for Another Location

Airport or City:

Astronomy

Feb. 07, 2014 Rise Set
Actual Time 7:24 AM WET 6:19 PM WET
Civil Twilight 6:59 AM WET 6:44 PM WET
Nautical Twilight 6:31 AM WET 7:12 PM WET
Astronomical Twilight 6:03 AM WET 7:40 PM WET
Moon 12:25 PM WET (2/7) 1:24 AM WET (2/7)
Length of Visible Light 11h 44m
Length of Day
10h 54m
First Quarter, 57% of the Moon is Illuminated
Feb 7
First Quarter
Feb 14
Full
Feb 22
Last Quarter
Mar 1
New
Mar 8
First Quarter

Hourly Weather History & Observations

Time (WET) Temp. Dew Point Humidity Pressure Visibility Wind Dir Wind Speed Gust Speed Precip Events Conditions
12:00 AM 57 °F 52 °F 77% 30.21 in 6 mi Calm Calm - -   Mostly Cloudy
12:00 AM 57.2 °F 51.8 °F 82% 30.18 in 6.2 mi Calm Calm - N/A   Mostly Cloudy
1:00 AM 57.2 °F 51.8 °F 82% 30.21 in 6.2 mi Calm Calm - N/A   Mostly Cloudy
2:00 AM 55.4 °F 50.0 °F 82% 30.18 in 6.2 mi Calm Calm - N/A   Unknown
3:00 AM 55 °F 51 °F 80% 30.19 in 6 mi Calm Calm - -   Mostly Cloudy
3:00 AM 55.4 °F 50.0 °F 82% 30.18 in 6.2 mi Calm Calm - N/A   Mostly Cloudy
4:00 AM 55.4 °F 50.0 °F 82% 30.18 in 6.2 mi Calm Calm - N/A   Mostly Cloudy
5:00 AM 53.6 °F 50.0 °F 88% 30.18 in 6.2 mi Calm Calm - N/A   Unknown
6:00 AM 50 °F 46 °F 83% 30.19 in 6 mi Calm Calm - -   Mostly Cloudy
6:00 AM 50.0 °F 46.4 °F 87% 30.18 in 6.2 mi Calm Calm - N/A   Mostly Cloudy
7:00 AM 50.0 °F 48.2 °F 94% 30.18 in 6.2 mi Calm Calm - N/A   Mostly Cloudy
8:00 AM 50.0 °F 48.2 °F 94% 30.18 in 6.2 mi Calm Calm - N/A   Partly Cloudy
9:00 AM 57 °F 51 °F 74% 30.22 in 6 mi ENE 5.8 mph - -  
9:00 AM 57.2 °F 51.8 °F 82% 30.21 in 6.2 mi ENE 5.8 mph - N/A   Unknown
10:00 AM 60.8 °F 50.0 °F 68% 30.21 in 6.2 mi East 4.6 mph - N/A   Unknown
11:00 AM 64.4 °F 48.2 °F 56% 30.21 in - Calm Calm - N/A   Clear
12:00 PM 67 °F 47 °F 38% 30.20 in 6 mi Calm Calm - -  
12:00 PM 68.0 °F 48.2 °F 49% 30.18 in - Calm Calm - N/A   Clear
1:00 PM 69.8 °F 46.4 °F 43% 30.15 in - West 3.5 mph - N/A   Clear
2:00 PM 68.0 °F 48.2 °F 49% 30.12 in - West 12.7 mph - N/A   Clear
3:00 PM 68 °F 49 °F 39% 30.12 in 6 mi West 10.4 mph - -  
3:00 PM 68.0 °F 48.2 °F 49% 30.12 in - West 10.4 mph - N/A   Clear
4:00 PM 68.0 °F 46.4 °F 46% 30.12 in - West 13.8 mph - N/A   Clear
5:00 PM 66.2 °F 48.2 °F 52% 30.12 in - West 12.7 mph - N/A   Clear
6:00 PM 64 °F 48 °F 45% 30.14 in 6 mi WSW 8.1 mph - -  
7:00 PM 59.0 °F 50.0 °F 72% 30.15 in - Calm Calm - N/A   Clear
8:00 PM 57.2 °F 51.8 °F 82% 30.15 in - South 5.8 mph - N/A   Clear
9:00 PM 56 °F 51 °F 80% 30.19 in 6 mi Calm Calm - -  
9:00 PM 55.4 °F 51.8 °F 88% 30.18 in - Calm Calm - N/A   Clear
10:00 PM 53.6 °F 50.0 °F 88% 30.21 in - Calm Calm - N/A   Clear
11:00 PM 51.8 °F 50.0 °F 94% 30.21 in - Calm Calm - N/A   Clear